| time (UTC) | temp C | wind direction | speed KPH | gust KPH | rain 1hr cm | rain 24hr cm | rain mn cm | humidity % | barometer mb |
| 20260506050152 | 9 | 326 | 6.4 | 17.7 | 0.00 | 0.00 | 0.00 | 44 | 865.0 |
| 20260506040753 | 9 | 5 | 12.9 | 22.5 | 0.00 | 0.00 | 0.00 | 55 | 864.6 |
| 20260506030437 | 10 | 5 | 14.5 | 22.5 | 0.00 | 0.00 | 0.00 | 51 | 864.0 |
| 20260506022725 | 12 | 305 | 19.3 | 32.2 | 0.00 | 0.00 | 0.00 | 46 | 863.5 |
| 20260506010317 | 13 | 355 | 24.1 | 33.8 | 0.00 | 0.00 | 0.00 | 47 | 863.0 |
| 20260506003003 | 12 | 306 | 22.5 | 33.8 | 0.00 | 0.00 | 0.00 | 49 | 863.1 |
| 20260505235529 | 12 | 304 | 22.5 | 35.4 | 0.00 | 0.00 | 0.00 | 51 | 863.4 |
| 20260505222242 | 12 | 294 | 17.7 | 38.6 | 0.00 | 0.00 | 0.00 | 52 | 863.6 |
| 20260505211607 | 13 | 20 | 14.5 | 32.2 | 0.00 | 0.00 | 0.00 | 37 | 863.7 |
| 20260505200441 | 13 | 19 | 19.3 | 30.6 | 0.00 | 0.00 | 0.00 | 41 | 863.8 |
| 20260505193204 | 13 | 34 | 11.3 | 19.3 | 0.00 | 0.00 | 0.00 | 43 | 863.9 |
| 20260505183034 | 13 | 36 | 11.3 | 27.4 | 0.00 | 0.00 | 0.00 | 46 | 864.0 |
| 20260505172917 | 12 | 53 | 17.7 | 32.2 | 0.00 | 0.00 | 0.00 | 44 | 863.4 |
| 20260505162826 | 12 | 5 | 14.5 | 30.6 | 0.00 | 0.00 | 0.00 | 44 | 863.1 |
| 20260505152524 | 11 | 338 | 4.8 | 19.3 | 0.00 | 0.00 | 0.00 | 43 | 863.0 |
| 20260505130150 | 9 | 49 | 8.0 | 14.5 | 0.00 | 0.00 | 0.00 | 44 | 862.1 |
| 20260505120137 | 9 | 59 | 11.3 | 17.7 | 0.00 | 0.00 | 0.00 | 47 | 861.7 |
| 20260505110115 | 9 | 11 | 8.0 | 32.2 | 0.00 | 0.00 | 0.00 | 46 | 861.5 |
| 20260505100139 | 10 | 144 | 6.4 | 35.4 | 0.00 | 0.00 | 0.00 | 45 | 861.2 |
| 20260505090113 | 9 | 258 | 9.7 | 27.4 | 0.00 | 0.00 | 0.00 | 50 | 861.1 |
| 20260505080115 | 10 | 42 | 20.9 | 43.5 | 0.00 | 0.00 | 0.00 | 49 | 861.2 |
| 20260505070109 | 10 | 28 | 14.5 | 33.8 | 0.00 | 0.00 | 0.00 | 48 | 861.2 |